Regional Weather Roundup
Issued by NWS Sterling, VA

Home | Current Version | Previous Version | Graphics & Text | Print | Product List | Glossary On
Versions: 1 2 3 4 5 6 7 8 9 10 11 12 13 14 15 16 17 18 19 20 21 22 23 24 25 26 27 28 29 30 31 32 33 34 35 36 37 38 39 40 41 42 43 44 45 46 47 48 49 50
000
ASUS41 KLWX 280410
RWRLWX

REGIONAL WEATHER ROUNDUP
NATIONAL WEATHER SERVICE BALTIMORE MD/WASHINGTON DC
1200 AM EDT SAT MAY 28 2016

Note: "FAIR" indicates few or no clouds below 12,000 feet
with no significant weather and/or obstructions to visibility.
 TC=TEMPERATURE CELSIUS

 * =Non NWS site. Station does not report precipitation (e.g. rain,
    snow, etc.), thunder, or fog.

DCZ001-MDZ009-015-VAZ040>042-051-053>054-280500-
WASHINGTON METRO

CITY           SKY/WX    TMP DP  RH WIND       PRES   REMARKS
WASHINGTON NAT MOCLDY    76  68  76 S9        30.09R
DULLES         FAIR      76  67  73 S6        30.09S
ANDREWS AFB    CLOUDY    73  66  78 S8        30.09S
FT BELVOIR     FAIR      74  67  80 CALM      30.10R
QUANTICO       FAIR      74  68  81 SW7       30.11R
COLLEGE PARK*  FAIR      77  66  69 S3        30.09R
LEESBURG*      MOCLDY    73  72  94 SW3       30.10S
MANASSAS*      FAIR      72  70  94 CALM      30.09S

$$

MDZ006>007-011-014-280500-
BALTIMORE METRO

CITY           SKY/WX    TMP DP  RH WIND       PRES   REMARKS
BWI AIRPORT    MOCLDY    72  65  78 CALM      30.09R
MD SCIENCE CTR   N/A     75  64  68 MISG      30.10R
MARTIN STATE   CLOUDY    72  64  78 S8        30.11S
ANNAPOLIS      CLOUDY    70  64  81 S9        30.10R
FORT MEADE*    PTCLDY    68  64  88 CALM      30.12R

$$

MDZ012-015-019>023-280500-
MARYLAND EASTERN SHORE

CITY           SKY/WX    TMP DP  RH WIND       PRES   REMARKS
OCEAN CITY     CLEAR     70  62  76 SW16      30.15R
SALISBURY      CLEAR     70  59  68 S8        30.14R
BAY BRIDGE AP* CLOUDY    73  64  73 S14       30.10S
CAMBRIDGE*     CLEAR     70  63  78 S5        30.12S
EASTON*        CLEAR     74  67  78 S12       30.15S

$$

MDZ017>025-280500-
SOUTHERN MARYLAND

CITY           SKY/WX    TMP DP  RH WIND       PRES   REMARKS
PATUXENT RIVER CLEAR     73  61  65 S8        30.11R
ST INIGOES     CLEAR     71  64  78 S7        30.12R
LEONARDTOWN*   CLEAR     72  61  68 S5        30.14R

$$

MDZ003>005-280500-
NORTH CENTRAL MARYLAND

CITY           SKY/WX    TMP DP  RH WIND       PRES   REMARKS
FREDERICK*     PTCLDY    70  68  94 CALM      30.11S
HAGERSTOWN APT CLOUDY    72  69  90 CALM      30.09R
WESTMINSTER*   PTCLDY    75  72  88 CALM      30.10S

$$

MDZ501>502-280500-
WESTERN MARYLAND

CITY           SKY/WX    TMP DP  RH WIND       PRES   REMARKS
OAKLAND*       CLOUDY    64  57  77 S8        30.19S
CUMBERLAND*    CLOUDY    70  70 100 CALM      30.15R

$$

VAZ025>031-280500-
SHENANDOAH VALLEY

CITY           SKY/WX    TMP DP  RH WIND       PRES   REMARKS
WINCHESTER*    FAIR      70  66  88 CALM      30.11R
FRONT ROYAL*   FAIR      68  68 100 S5        30.10S
LURAY*         FAIR      68  68 100 S3        30.12S
NEW MARKET*    FAIR      65  64  99 CALM      30.12S
STAUNTON*      FAIR      66  65  99 CALM      30.17S FOG
WAYNESBORO*    FAIR      67  65  91 CALM      30.16S

$$

WVZ021-048>050-054>055-280500-
EASTERN WEST VIRGINIA PANHANDLE

CITY           SKY/WX    TMP DP  RH WIND       PRES   REMARKS
MARTINSBURG    FAIR      69  64  84 S5        30.09R
PETERSBURG*    CLOUDY    66  66  99 CALM      30.13S FOG

$$

VAZ036>039-050-280500-
CENTRAL FOOTHILLS

CITY           SKY/WX    TMP DP  RH WIND       PRES   REMARKS
CHARLOTTESVILL FAIR      76  66  71 S8        30.12R
CULPEPER*      MOCLDY    72  69  91 CALM      30.11R
ORANGE*        FAIR      72  70  94 CALM      30.13R
GORDONSVILLE*  FAIR      69  69  98 CALM      30.11S
WARRENTON*     FAIR      76  63  64 S3        30.10R

$$

VAZ055>057-280500-
NORTH AND CENTRAL PIEDMONT

CITY           SKY/WX    TMP DP  RH WIND       PRES   REMARKS
FREDERICKSBRG* FAIR      75  68  77 S8        30.10R
STAFFORD*      FAIR      73  65  77 CALM      30.14R

$$

NCZ024-NYZ072-PAZ021-071-VAZ022-071-280500-
OTHER REGIONAL OBSERVATIONS

CITY           SKY/WX    TMP DP  RH WIND       PRES   REMARKS
NEW YORK CITY  CLEAR     76  63  64 VRB7      30.09R
PHILADELPHIA   PTCLDY    74  62  66 S8        30.10R
PITTSBURGH     PTCLDY    74  63  68 S3        30.07R
ROANOKE        FAIR      74  64  71 SE5       30.16R
RICHMOND       FAIR      72  58  61 S9        30.13R
RALEIGH        PTCLDY    72  56  57 S6        30.16R

$$

ANZ530>537-280500-
MARINE OBSERVATIONS

STATION/POSITION TIME  TEMP    WIND        PRES
                       AIR SEA DIR/SP/G
                 (UTC) (F)     (DEG/KT/KT) (MB)
THOMAS PT LIGHT  0400   70 65  170/ 18/ 19 1020.3R
BALT KEY BRIDGE  0300          130/  5/  6 1018.7R
COVE POINT       0300          190/ 12/ 13 1020.0R
LEWISETTA        0300      73  210/ 10/ 12 1019.3R
SOLOMONS ISLAND  0300      67  190/ 12/ 15   N/A
PINEY POINT      0300          180/ 10/ 11   N/A

$$




USA.gov is the U.S. government's official web portal to all federal, state and local government web resources and services.